GJONW EGBO-EGBO

Flight info

Callsign GJONW
Flight time 0h 16m
Altitude 3500
Route TELBA DCT CONHA DCT ATHAS DCT BEPHE DCT KAMJU
Aircraft BT36/L-BDFGLORY/S

Departure

Time 2026-04-27 19:47
Airport Wolverhampton Halfpenny Green Airport (EGBO)

Arrival

Time 2026-04-27 20:03
Airport Wolverhampton Halfpenny Green Airport (EGBO)
Time Latitude Longitude Altitude Speed Heading
2026-04-27 18:28 52.51569 -2.26432 279 ft 0 kts
2026-04-27 19:42 52.51574 -2.26450 279 ft 7 kts 190°
2026-04-27 19:42 52.51534 -2.26528 281 ft 13 kts 272°
2026-04-27 19:42 52.51545 -2.26689 285 ft 12 kts 288°
2026-04-27 19:43 52.51623 -2.26672 282 ft 16 kts 37°
2026-04-27 19:43 52.51702 -2.26553 278 ft 17 kts 75°
2026-04-27 19:43 52.51694 -2.26327 278 ft 22 kts 100°
2026-04-27 19:43 52.51676 -2.26069 281 ft 17 kts 97°
2026-04-27 19:44 52.51674 -2.26048 281 ft 0 kts 99°
2026-04-27 19:44 52.51668 -2.25979 281 ft 12 kts 97°
2026-04-27 19:44 52.51596 -2.25845 283 ft 21 kts 152°
2026-04-27 19:45 52.51444 -2.25719 288 ft 22 kts 156°
2026-04-27 19:45 52.51418 -2.25722 288 ft 3 kts 334°
2026-04-27 19:45 52.51424 -2.25726 288 ft 0 kts 335°
2026-04-27 19:46 52.51451 -2.25746 287 ft 30 kts 338°
2026-04-27 19:46 52.51905 -2.26085 306 ft 105 kts 338°
2026-04-27 19:46 52.52637 -2.26627 596 ft 131 kts 341°
2026-04-27 19:46 52.53578 -2.27217 783 ft 155 kts 341°
2026-04-27 19:47 52.54499 -2.28227 961 ft 168 kts 309°
2026-04-27 19:47 52.55113 -2.29870 1131 ft 166 kts 321°
2026-04-27 19:47 52.56153 -2.30475 1304 ft 161 kts
2026-04-27 19:47 52.57219 -2.31044 1460 ft 170 kts 323°
2026-04-27 19:48 52.57778 -2.32792 1623 ft 181 kts 288°
2026-04-27 19:48 52.58030 -2.34836 1779 ft 182 kts 286°
2026-04-27 19:48 52.58269 -2.36793 1931 ft 168 kts 287°
2026-04-27 19:48 52.58479 -2.38652 1999 ft 165 kts 286°
2026-04-27 19:49 52.58681 -2.40533 2006 ft 168 kts 286°
2026-04-27 19:49 52.58801 -2.42468 2006 ft 171 kts 278°
2026-04-27 19:49 52.58787 -2.44413 2004 ft 175 kts 266°
2026-04-27 19:49 52.58555 -2.46398 2003 ft 177 kts 263°
2026-04-27 19:50 52.58320 -2.48371 2011 ft 174 kts 263°
2026-04-27 19:50 52.58082 -2.50332 2012 ft 176 kts 264°
2026-04-27 19:50 52.57823 -2.52290 2005 ft 173 kts 262°
2026-04-27 19:50 52.57656 -2.53565 2012 ft 172 kts 263°
2026-04-27 19:51 52.57187 -2.55390 2005 ft 180 kts 230°
2026-04-27 19:51 52.56083 -2.56313 2005 ft 181 kts 184°
2026-04-27 19:51 52.54880 -2.55940 2010 ft 175 kts 156°
2026-04-27 19:51 52.53739 -2.55298 2011 ft 172 kts 156°
2026-04-27 19:52 52.52595 -2.54664 2015 ft 175 kts 156°
2026-04-27 19:52 52.51588 -2.53647 2009 ft 169 kts 126°
2026-04-27 19:52 52.50841 -2.52171 2011 ft 168 kts 123°
2026-04-27 19:52 52.50099 -2.50690 2014 ft 168 kts 123°
2026-04-27 19:53 52.48746 -2.47617 2019 ft 164 kts 107°
2026-04-27 19:53 52.48274 -2.45919 2014 ft 163 kts 106°
2026-04-27 19:53 52.47812 -2.44252 2010 ft 156 kts 106°
2026-04-27 19:54 52.47385 -2.42677 2000 ft 150 kts 106°
2026-04-27 19:54 52.46971 -2.41112 2001 ft 149 kts 106°
2026-04-27 19:54 52.46534 -2.39563 1997 ft 152 kts 116°
2026-04-27 19:54 52.45768 -2.38327 2001 ft 161 kts 142°
2026-04-27 19:55 52.44760 -2.37458 1999 ft 165 kts 147°
2026-04-27 19:55 52.43736 -2.36599 2001 ft 166 kts 146°
2026-04-27 19:55 52.42709 -2.35757 1996 ft 163 kts 147°
2026-04-27 19:55 52.41692 -2.34960 1999 ft 161 kts 147°
2026-04-27 19:56 52.40669 -2.34174 1995 ft 163 kts 147°
2026-04-27 19:56 52.39648 -2.33374 2004 ft 164 kts 146°
2026-04-27 19:56 52.38605 -2.32539 2005 ft 169 kts 146°
2026-04-27 19:56 52.37551 -2.31704 2006 ft 168 kts 147°
2026-04-27 19:57 52.36645 -2.30618 2001 ft 156 kts 116°
2026-04-27 19:57 52.36272 -2.29047 2000 ft 144 kts 90°
2026-04-27 19:57 52.36334 -2.27490 2002 ft 136 kts 66°
2026-04-27 19:57 52.36792 -2.26175 2003 ft 133 kts 53°
2026-04-27 19:58 52.37310 -2.24923 1998 ft 133 kts 52°
2026-04-27 19:58 52.37822 -2.23670 2002 ft 132 kts 53°
2026-04-27 19:58 52.38339 -2.22422 2006 ft 133 kts 52°
2026-04-27 19:58 52.38947 -2.21309 2005 ft 132 kts 28°
2026-04-27 19:59 52.39830 -2.20874 2011 ft 133 kts 19°
2026-04-27 19:59 52.40718 -2.20431 2008 ft 133 kts 19°
2026-04-27 19:59 52.41607 -2.20001 2011 ft 133 kts 19°
2026-04-27 19:59 52.42493 -2.19560 2008 ft 133 kts 18°
2026-04-27 20:00 52.43419 -2.19753 2010 ft 141 kts 345°
2026-04-27 20:00 52.44316 -2.20387 1897 ft 146 kts 338°
2026-04-27 20:00 52.45168 -2.21217 1592 ft 137 kts 336°
2026-04-27 20:00 52.45929 -2.21977 1510 ft 118 kts 337°
2026-04-27 20:01 52.46579 -2.22621 1383 ft 107 kts 340°
2026-04-27 20:01 52.47284 -2.23082 1308 ft 109 kts 345°
2026-04-27 20:01 52.48004 -2.23520 1206 ft 111 kts 346°
2026-04-27 20:01 52.48748 -2.23914 1107 ft 112 kts 347°
2026-04-27 20:02 52.49549 -2.24243 793 ft 118 kts 346°
2026-04-27 20:02 52.50234 -2.24827 577 ft 109 kts 330°
2026-04-27 20:02 52.50882 -2.25356 475 ft 100 kts 340°
2026-04-27 20:02 52.51396 -2.25728 316 ft 67 kts 341°
2026-04-27 20:03 52.51786 -2.25988 279 ft 50 kts 337°
2026-04-27 20:03 52.52007 -2.26183 273 ft 14 kts 253°
2026-04-27 20:03 52.51926 -2.26300 274 ft 17 kts 214°
2026-04-27 20:03 52.51829 -2.26414 277 ft 17 kts 216°
2026-04-27 20:04 52.51749 -2.26523 277 ft 11 kts 213°
2026-04-27 20:04 52.51704 -2.26520 278 ft 7 kts 120°
2026-04-27 20:04 52.51695 -2.26415 278 ft 14 kts 91°
2026-04-27 20:04 52.51678 -2.26292 279 ft 8 kts 173°
2026-04-27 20:05 52.51629 -2.26301 279 ft 5 kts 164°
2026-04-27 20:05 52.51608 -2.26254 279 ft 8 kts 138°
2026-04-27 20:05 52.51566 -2.26213 280 ft 5 kts 85°
2026-04-27 20:05 52.51554 -2.26164 280 ft 6 kts 194°
2026-04-27 20:06 52.51550 -2.26175 280 ft 0 kts 275°